Regional Weather Roundup
Issued by NWS Charleston, WV

Home | Current Version | Previous Version | Graphics & Text | Print | Product List | Glossary On
Versions: 1 2 3 4 5 6 7 8 9 10 11 12 13 14 15 16 17 18 19 20 21 22 23 24 25 26 27
000
ASUS41 KRLX 242010
RWRRLX
West Virginia Regional Weather Roundup
National Weather Service Charleston WV
400 PM EDT MON JUL 24 2017

Note: "fair" indicates few or no clouds below 12,000 feet with no
significant weather and/or obstructions to visibility.

WVZ003-242100-
Northern Panhandle of West Virginia

CITY           SKY/WX    TMP DP  RH WIND       PRES   REMARKS
WHEELING       MOSUNNY   78  64  61 NW13G23   29.90R
$$

WVZ009-242100-
Northwest West Virginia

CITY           SKY/WX    TMP DP  RH WIND       PRES   REMARKS
PARKERSBURG    SUNNY     83  68  60 N12G20    29.92S
$$

WVZ006-242100-
Western West Virginia

CITY           SKY/WX    TMP DP  RH WIND       PRES   REMARKS
HUNTINGTON     CLOUDY    87  65  47 NW9       29.91S
$$

WVZ015-242100-
West Central West Virginia

CITY           SKY/WX    TMP DP  RH WIND       PRES   REMARKS
CHARLESTON     PTSUNNY   85  71  63 NW10      29.90F
$$

WVZ022-031-242100-
North Central West Virginia

CITY           SKY/WX    TMP DP  RH WIND       PRES   REMARKS
CLARKSBURG     CLOUDY    82  69  64 NW3       29.89S
MORGANTOWN     LGT RAIN  72  68  87 S8        29.91R
$$

WVZ025-035-042-045-242100-
Southern West Virginia

CITY           SKY/WX    TMP DP  RH WIND       PRES   REMARKS
BECKLEY        LGT RAIN  76  64  66 W9        30.01S
LOGAN            N/A     81  70  69 SW6G13    29.97S
BLUEFIELD      MOSUNNY   79  61  53 W8        30.05F
LEWISBURG      CLOUDY    83  60  44 W8G18     29.98F
$$

WVZ047-242100-
Northern Mountains of West Virginia

CITY           SKY/WX    TMP DP  RH WIND       PRES   REMARKS
ELKINS         CLOUDY    80  64  58 NW9       29.95S
$$

WVZ052-242100-
Eastern Panhandle of West Virginia

CITY           SKY/WX    TMP DP  RH WIND       PRES   REMARKS
MARTINSBURG    MOSUNNY   89  63  41 W12       29.81F
PETERSBURG     MOSUNNY   88  60  39 W7        29.86F
$$




USA.gov is the U.S. government's official web portal to all federal, state and local government web resources and services.